Hof Plauen, Germany

3:02 AM CEST on September 23, 2017 (GMT +0200)
Hof-Plauen

Weather History for EDQM - November, 2012

Change the Weather History Date:

Tuesday, November 6, 2012

  Actual Average Record
Temperature  
Mean Temperature 36 °F -  
Max Temperature 39 °F 37 °F 59 °F (2015)
Min Temperature 32 °F 31 °F 23 °F (2002)
Degree Days  
Heating Degree Days 30    
Moisture  
Dew Point 33 °F    
Average Humidity 90    
Maximum Humidity 99    
Minimum Humidity 81    
Precipitation  
Precipitation 0.03 in - - ()
Sea Level Pressure  
Sea Level Pressure 29.92 in    
Wind  
Wind Speed 7 mph ()    
Max Wind Speed 13 mph    
Max Gust Speed -    
Visibility 6.6 miles    
Events Rain , Snow    
Averages and records for this station are not official NWS values.
T = Trace of Precipitation, MM = Missing Value Source: Averaged Metar Reports

Daily Weather History Graph

Daily Weather History Graph

Search for Another Location

Airport or City:

Trip Planner

Search our weather history database for the weather conditions in past years. The results will help you decide how hot, cold, wet, or windy it might be!

Date:

Astronomy

Nov. 06, 2012 Rise Set
Actual Time 7:11 AM CET 4:39 PM CET
Civil Twilight 6:36 AM CET 5:14 PM CET
Nautical Twilight 5:58 AM CET 5:53 PM CET
Astronomical Twilight 5:20 AM CET 6:31 PM CET
Moon 11:07 PM CET (11/6) 12:51 PM CET (11/6)
Length of Visible Light 10h 37m
Length of Day
9h 27m
Waning Gibbous, 56% of the Moon is Illuminated
Nov 6
Waning Gibbous
Nov 7
Last Quarter
Nov 13
New
Nov 20
First Quarter
Nov 28
Full

Hourly Weather History & Observations

Time (CET) Temp. Windchill Dew Point Humidity Pressure Visibility Wind Dir Wind Speed Gust Speed Precip Events Conditions
12:00 AM 37 °F - 36 °F 93% 29.78 in 3 mi West 6.7 mph - - Rain Rain
12:20 AM 37.4 °F 30.3 °F 33.8 °F 87% 29.74 in 5.6 mi West 10.4 mph - N/A Rain Rain
12:50 AM 33.8 °F 27.0 °F 32.0 °F 93% 29.74 in 1.8 mi WSW 8.1 mph - N/A Snow Light Snow
1:00 AM 35 °F - 35 °F 99% 29.81 in 3 mi West 6.7 mph - - Rain Rain
1:20 AM 33.8 °F 27.7 °F 32.0 °F 93% 29.74 in 4.3 mi West 6.9 mph - N/A Rain Rain
1:50 AM 33.8 °F 27.7 °F 32.0 °F 93% 29.74 in 5.6 mi West 6.9 mph - N/A Rain Light Rain
2:00 AM 35 °F - 34 °F 95% 29.82 in 4 mi West 4.5 mph - - Rain Light Rain
2:20 AM 33.8 °F 28.6 °F 32.0 °F 93% 29.77 in 6.2 mi West 5.8 mph - N/A Rain Light Rain
2:50 AM 35.6 °F 31.7 °F 32.0 °F 87% 29.77 in 5.6 mi West 4.6 mph - N/A Rain Light Rain
3:00 AM 35 °F - 35 °F 98% 29.84 in 10 mi WNW 4.5 mph - - Snow Snow
3:20 AM 35.6 °F 29.9 °F 33.8 °F 93% 29.77 in 6.2 mi WNW 6.9 mph - N/A   Mostly Cloudy
3:50 AM 35.6 °F 29.9 °F 32.0 °F 87% 29.80 in 6.2 mi West 6.9 mph - N/A   Mostly Cloudy
4:20 AM 35.6 °F 31.7 °F 32.0 °F 87% 29.80 in 6.2 mi West 4.6 mph - N/A   Scattered Clouds
4:50 AM 33.8 °F 29.6 °F 32.0 °F 93% 29.80 in 6.2 mi West 4.6 mph - N/A   Scattered Clouds
5:00 AM 34 °F - 33 °F 97% 29.88 in 6 mi West 4.5 mph - -  
5:20 AM 32.0 °F 26.4 °F 30.2 °F 93% 29.83 in 6.2 mi WSW 5.8 mph - N/A   Unknown
5:50 AM 33.8 °F 29.6 °F 32.0 °F 93% 29.83 in 6.2 mi SW 4.6 mph - N/A   Unknown
6:00 AM 33 °F - 33 °F 99% 29.91 in 4 mi West 4.5 mph - -   Mist
6:20 AM 33.8 °F 27.7 °F 30.2 °F 87% 29.83 in 6.2 mi WSW 6.9 mph - N/A   Unknown
6:50 AM 33.8 °F 27.0 °F 30.2 °F 87% 29.86 in 6.2 mi WSW 8.1 mph - N/A   Unknown
7:00 AM 33 °F - 32 °F 94% 29.93 in 9 mi WSW 4.5 mph - -   Partly Cloudy
7:20 AM 33.8 °F 27.0 °F 30.2 °F 87% 29.86 in 6.2 mi SW 8.1 mph - N/A   Mostly Cloudy
7:50 AM 33.8 °F 26.4 °F 32.0 °F 93% 29.89 in 6.2 mi WSW 9.2 mph - N/A   Overcast
8:00 AM 34 °F - 33 °F 96% 29.95 in 11 mi SW 6.7 mph - -   Mostly Cloudy
8:20 AM 33.8 °F 28.6 °F 32.0 °F 93% 29.89 in 6.2 mi SW 5.8 mph - N/A   Overcast
8:50 AM 35.6 °F 29.9 °F 32.0 °F 87% 29.89 in 6.2 mi WSW 6.9 mph - N/A   Overcast
9:00 AM 35 °F - 34 °F 94% 29.96 in 11 mi WSW 6.7 mph - -   Mostly Cloudy
9:20 AM 35.6 °F 28.6 °F 32.0 °F 87% 29.89 in 6.2 mi WSW 9.2 mph - N/A   Mostly Cloudy
9:50 AM 35.6 °F 27.5 °F 33.8 °F 93% 29.92 in 6.2 mi WSW 11.5 mph - N/A   Overcast
10:20 AM 37.4 °F 30.8 °F 33.8 °F 87% 29.92 in 6.2 mi WSW 9.2 mph - N/A   Overcast
10:50 AM 37.4 °F 29.3 °F 32.0 °F 81% 29.92 in 6.2 mi WSW 12.7 mph - N/A   Overcast
11:00 AM 37 °F - 35 °F 90% 29.99 in 11 mi West 8.9 mph - -   Overcast
11:20 AM 37.4 °F 29.3 °F 33.8 °F 87% 29.95 in 6.2 mi West 12.7 mph - N/A   Overcast
12:00 PM 38 °F - 35 °F 86% 30.01 in 11 mi West 13.4 mph - -   Overcast
12:20 PM 39.2 °F 32.5 °F 33.8 °F 81% 29.95 in 6.2 mi WSW 10.4 mph - N/A   Overcast
12:50 PM 39.2 °F 32.0 °F 33.8 °F 81% 29.95 in 6.2 mi WSW 11.5 mph - N/A   Overcast
1:00 PM 39 °F - 35 °F 82% 30.01 in 11 mi West 11.2 mph - - Rain Light Rain
1:20 PM 37.4 °F 29.8 °F 33.8 °F 87% 29.95 in 6.2 mi WSW 11.5 mph - N/A Rain Light Rain Showers
1:50 PM 39.2 °F 33.6 °F 33.8 °F 81% 29.98 in 6.2 mi SW 8.1 mph - N/A   Mostly Cloudy
2:00 PM 39 °F - 36 °F 84% 30.02 in 9 mi WSW 6.7 mph - - Rain Light Rain
2:20 PM 35.6 °F 27.5 °F 32.0 °F 87% 29.98 in 3.1 mi WNW 11.5 mph - N/A Rain Rain Showers
2:50 PM 37.4 °F 30.8 °F 33.8 °F 87% 29.98 in 6.2 mi West 9.2 mph - N/A   Mostly Cloudy
3:00 PM 37 °F - 35 °F 91% 30.05 in 12 mi West 8.9 mph - - Rain Light Rain
3:20 PM 37.4 °F 31.4 °F 33.8 °F 87% 30.01 in 6.2 mi West 8.1 mph - N/A Rain Light Rain Showers
3:50 PM 35.6 °F 28.0 °F 32.0 °F 87% 30.01 in 5.6 mi WNW 10.4 mph - N/A Rain Light Rain Showers
4:20 PM 37.4 °F 30.8 °F 32.0 °F 81% 30.01 in 6.2 mi West 9.2 mph - N/A   Mostly Cloudy
4:50 PM 37.4 °F 32.1 °F 33.8 °F 87% 30.04 in 6.2 mi WSW 6.9 mph - N/A   Mostly Cloudy
5:00 PM 36 °F - 34 °F 91% 30.09 in 14 mi West 4.5 mph - - Rain Light Rain
5:20 PM 37.4 °F 32.8 °F 33.8 °F 87% 30.04 in 5.6 mi WSW 5.8 mph - N/A Rain Light Rain Showers
5:50 PM 37.4 °F 32.1 °F 33.8 °F 87% 30.04 in 6.2 mi WSW 6.9 mph - N/A Rain Light Rain Showers
6:00 PM 36 °F - 35 °F 95% 30.10 in 7 mi WSW 4.5 mph - - Rain Light Rain
7:00 PM 36 °F - 35 °F 92% 30.11 in 7 mi WSW 6.7 mph - - Rain Light Rain
8:00 PM 36 °F - 34 °F 90% 30.12 in 7 mi WSW 8.9 mph - -   Scattered Clouds
9:00 PM 35 °F - 34 °F 93% 30.12 in 6 mi SW 11.2 mph - -   Scattered Clouds
11:00 PM 36 °F - 34 °F 91% 30.12 in 4 mi WSW 11.2 mph - - Rain Rain